QPF
0.00 0.00 0.00 0.00 0.00 0.00 0.00 0.00 0.00 0.00 0.00 0.00 0.00 0.00 0.00 0.00 0.00 0.00 0.00 0.00 0.00 0.00 0.00 0.00 0.00 0.00 0.00 0.00 0.00 0.00 0.00 0.00 0.00 0.00 0.00 0.00 0.00 0.00 0.00 0.00 0.00 0.00 0.00 0.00 0.00
0.00 0.00 0.00 0.00 0.00 0.00 0.00 0.00 0.00 0.00 0.00 0.00 0.00 0.00 0.00 0.00 0.00 0.00 0.00 0.00 0.00 0.00 0.00 0.00 0.00 0.00 0.00 0.00 0.00 0.00 0.00 0.00 0.00 0.00 0.00 0.00 0.00 0.00 0.00 0.00 0.00 0.00 0.00 0.00 0.00
0.00 0.00 0.00 0.00 0.00 0.00 0.00 0.00 0.00 0.00 0.00 0.00 0.00 0.00 0.00 0.00 0.00 0.00 0.00 0.00 0.00 0.00 0.00 0.00 0.00 0.00 0.00 0.00 0.00 0.00 0.00 0.00 0.00 0.00 0.00 0.00 0.00 0.00 0.00 0.00 0.00 0.00 0.00 0.00 0.00
0.00 0.00 0.00 0.00 0.00 0.00 0.00 0.00 0.00 0.00 0.00 0.00 0.00 0.00 0.00 0.00 0.00 0.00 0.00 0.00 0.00 0.00 0.00 0.00 0.00 0.00 0.00 0.00 0.00 0.00 0.00 0.00 0.00 0.00 0.00 0.00 0.00 0.00 0.00 0.00 0.00 0.00 0.00 0.00 0.00
0.00 0.00 0.00 0.00 0.00 0.00 0.00 0.00 0.00 0.00 0.00 0.00 0.00 0.00 0.00 0.00 0.00 0.00 0.00 0.00 0.00 0.00 0.00 0.00 0.00 0.00 0.00 0.00 0.00 0.00 0.00 0.00 0.00 0.00 0.00 0.00 0.00 0.00 0.00 0.00 0.00 0.00 0.00 0.00 0.00
0.00 0.00 0.00 0.00 0.00 0.00 0.00 0.00 0.00 0.00 0.00 0.00 0.00 0.00 0.00 0.00 0.00 0.00 0.00 0.00 0.00 0.00 0.00 0.00 0.00 0.00 0.00 0.00 0.00 0.00 0.00 0.00 0.00 0.00 0.00 0.00 0.00 0.00 0.00 0.00 0.00 0.00 0.00 0.00 0.00
0.00 0.00 0.00 0.00 0.00 0.00 0.00 0.00 0.00 0.00 0.00 0.00 0.00 0.00 0.00 0.00 0.00 0.00 0.00 0.00 0.00 0.00 0.00 0.00 0.00 0.00 0.00 0.00 0.00 0.00 0.00 0.00 0.00 0.00 0.00 0.00 0.00 0.00 0.00 0.00 0.00 0.00 0.00 0.00 0.00
0.00 0.00 0.00 0.00 0.00 0.00 0.00 0.00 0.00 0.00 0.00 0.00 0.00 0.00 0.00 0.00 0.00 0.00 0.00 0.00 0.00 0.00 0.00 0.00 0.00 0.00 0.00 0.00 0.00 0.00 0.00 0.00 0.00 0.00 0.00 0.00 0.00 0.00 0.00 0.00 0.00 0.00 0.00 0.00 0.00
0.00 0.00 0.00 0.00 0.00 0.00 0.00 0.00 0.00 0.00 0.00 0.00 0.00 0.00 0.00 0.00 0.00 0.00 0.00 0.00 0.00 0.00 0.00 0.00 0.00 0.00 0.00 0.00 0.00 0.00 0.00 0.00 0.00 0.00 0.00 0.00 0.00 0.00 0.00 0.00 0.00 0.00 0.00 0.00 0.00
0.00 0.00 0.00 0.00 0.00 0.00 0.00 0.00 0.00 0.00 0.00 0.00 0.00 0.00 0.00 0.00 0.00 0.00 0.00 0.00 0.00 0.00 0.00 0.00 0.00 0.00 0.00 0.00 0.00 0.00 0.00 0.00 0.00 0.00 0.00 0.00 0.00 0.00 0.00 0.00 0.00 0.00 0.00 0.00 0.00
0.00 0.00 0.00 0.00 0.00 0.00 0.00 0.00 0.00 0.00 0.00 0.00 0.00 0.00 0.00 0.00 0.00 0.00 0.00 0.00 0.00 0.00 0.00 0.00 0.00 0.00 0.00 0.00 0.00 0.00 0.00 0.00 0.00 0.00 0.00 0.00 0.00 0.00 0.00 0.00 0.00 0.00 0.00 0.00 0.00
0.00 0.00 0.00 0.00 0.00 0.00 0.00 0.00 0.00 0.00 0.00 0.00 0.00 0.00 0.00 0.00 0.00 0.00 0.00 0.00 0.00 0.00 0.00 0.00 0.00 0.00 0.00 0.00 0.00 0.00 0.00 0.00 0.00 0.00 0.00 0.00 0.00 0.00 0.00 0.00 0.00 0.00 0.00 0.00 0.00
0.00 0.00 0.00 0.00 0.00 0.00 0.00 0.00 0.00 0.00 0.00 0.00 0.00 0.00 0.00 0.00 0.00 0.00 0.00 0.00 0.00 0.00 0.00 0.00 0.00 0.00 0.00 0.00 0.00 0.00 0.00 0.00 0.00 0.00 0.00 0.00 0.00 0.00 0.00 0.00 0.00 0.00 0.00 0.00 0.00
0.00 0.00 0.00 0.00 0.00 0.00 0.00 0.00 0.00 0.00 0.00 0.00 0.00 0.00 0.00 0.00 0.00 0.00 0.00 0.00 0.00 0.00 0.00 0.00 0.00 0.00 0.00 0.00 0.00 0.00 0.00 0.00 0.00 0.00 0.00 0.00 0.00 0.00 0.00 0.00 0.00 0.00 0.00 0.00 0.00
0.00 0.00 0.00 0.00 0.00 0.00 0.00 0.00 0.00 0.00 0.00 0.00 0.00 0.00 0.00 0.00 0.00 0.00 0.00 0.00 0.00 0.00 0.00 0.00 0.00 0.00 0.00 0.00 0.00 0.00 0.00 0.00 0.00 0.00 0.00 0.00 0.00 0.00 0.00 0.00 0.00 0.00 0.00 0.00 0.00
0.00 0.00 0.00 0.00 0.00 0.00 0.00 0.00 0.00 0.00 0.00 0.00 0.00 0.00 0.00 0.00 0.00 0.00 0.00 0.00 0.00 0.00 0.00 0.00 0.00 0.00 0.00 0.00 0.00 0.00 0.00 0.00 0.00 0.00 0.00 0.00 0.00 0.00 0.00 0.00 0.00 0.00 0.00 0.00 0.00
0.00 0.00 0.00 0.00 0.00 0.00 0.00 0.00 0.00 0.00 0.00 0.00 0.00 0.00 0.00 0.00 0.00 0.00 0.00 0.00 0.00 0.00 0.00 0.00 0.00 0.00 0.00 0.00 0.00 0.00 0.00 0.00 0.00 0.00 0.00 0.00 0.00 0.00 0.00 0.00 0.00 0.00 0.00 0.00 0.00
0.00 0.00 0.00 0.00 0.00 0.00 0.00 0.00 0.00 0.00 0.00 0.00 0.00 0.00 0.00 0.00 0.00 0.00 0.00 0.00 0.00 0.00 0.00 0.00 0.00 0.00 0.00 0.00 0.00 0.00 0.00 0.00 0.00 0.00 0.00 0.00 0.00 0.00 0.00 0.00 0.00 0.00 0.00 0.00 0.00
0.00 0.00 0.00 0.00 0.00 0.00 0.00 0.00 0.00 0.00 0.00 0.00 0.00 0.00 0.00 0.00 0.00 0.00 0.00 0.00 0.00 0.00 0.00 0.00 0.00 0.00 0.00 0.00 0.00 0.00 0.00 0.00 0.00 0.00 0.00 0.00 0.00 0.00 0.00 0.00 0.00 0.00 0.00 0.00 0.00
0.00 0.00 0.00 0.00 0.00 0.00 0.00 0.00 0.00 0.00 0.00 0.00 0.00 0.00 0.00 0.00 0.00 0.00 0.00 0.00 0.00 0.00 0.00 0.00 0.00 0.00 0.00 0.00 0.00 0.00 0.00 0.00 0.00 0.00 0.00 0.00 0.00 0.00 0.00 0.00 0.00 0.00 0.00 0.00 0.00
0.00 0.00 0.00 0.00 0.00 0.00 0.00 0.00 0.00 0.00 0.00 0.00 0.00 0.00 0.00 0.00 0.00 0.00 0.00 0.00 0.00 0.00 0.00 0.00 0.00 0.00 0.00 0.00 0.00 0.00 0.00 0.00 0.00 0.00 0.00 0.00 0.00 0.00 0.00 0.00 0.00 0.00 0.00 0.00 0.00
0.00 0.00 0.00 0.00 0.00 0.00 0.00 0.00 0.00 0.00 0.00 0.00 0.00 0.00 0.00 0.00 0.00 0.00 0.00 0.00 0.00 0.00 0.00 0.00 0.00 0.00 0.00 0.00 0.00 0.00 0.00 0.00 0.00 0.00 0.00 0.00 0.00 0.00 0.00 0.00 0.00 0.00 0.00 0.00 0.00
0.00 0.00 0.00 0.00 0.00 0.00 0.00 0.00 0.00 0.00 0.00 0.00 0.00 0.00 0.00 0.00 0.00 0.00 0.00 0.00 0.00 0.00 0.00 0.00 0.00 0.00 0.00 0.00 0.00 0.00 0.00 0.00 0.00 0.00 0.00 0.00 0.00 0.00 0.00 0.00 0.00 0.00 0.00 0.00 0.00
0.00 0.00 0.00 0.00 0.00 0.00 0.00 0.00 0.00 0.00 0.00 0.00 0.00 0.00 0.00 0.00 0.00 0.00 0.00 0.00 0.00 0.00 0.00 0.00 0.00 0.00 0.00 0.00 0.00 0.00 0.00 0.00 0.00 0.00 0.00 0.00 0.00 0.00 0.00 0.00 0.00 0.00 0.00 0.00 0.00
0.00 0.00 0.00 0.00 0.00 0.00 0.00 0.00 0.00 0.00 0.00 0.00 0.00 0.00 0.00 0.00 0.00 0.00 0.00 0.00 0.00 0.00 0.00 0.00 0.00 0.00 0.00 0.00 0.00 0.00 0.00 0.00 0.00 0.00 0.00 0.00 0.00 0.00 0.00 0.00 0.00 0.00 0.00 0.00 0.00
0.00 0.00 0.00 0.00 0.00 0.00 0.00 0.00 0.00 0.00 0.00 0.00 0.00 0.00 0.00 0.00 0.00 0.00 0.00 0.00 0.00 0.00 0.00 0.00 0.00 0.00 0.00 0.00 0.00 0.00 0.00 0.00 0.00 0.00 0.00 0.00 0.00 0.00 0.00 0.00 0.00 0.00 0.00 0.00 0.00
0.00 0.00 0.00 0.00 0.00 0.00 0.00 0.00 0.00 0.00 0.00 0.00 0.00 0.00 0.00 0.00 0.00 0.00 0.00 0.00 0.00 0.00 0.00 0.00 0.00 0.00 0.00 0.00 0.00 0.00 0.00 0.00 0.00 0.00 0.00 0.00 0.00 0.00 0.00 0.00 0.00 0.00 0.00 0.00 0.00
MSLP
1019.69 1019.47 1019.06 1018.82 1018.22 1017.87 1017.57 1017.13 1016.74 1016.34 1015.92 1015.52 1015.16 1014.67 1014.15 1013.80 1013.68 1013.72 1013.43 1012.18 1012.10 1012.06 1012.22 1012.59 1012.76 1012.83 1013.10 1013.31 1013.48 1013.76 1014.01 1013.18 1012.13 1011.90 1010.95 1010.50 1010.18 1009.98 1009.97 1010.15 1010.32 1010.35 1010.53 1010.81 1011.02
1020.07 1019.76 1019.47 1018.75 1018.32 1017.90 1017.50 1017.08 1016.71 1016.36 1015.90 1015.48 1015.02 1014.51 1014.04 1013.80 1013.76 1013.27 1012.05 1011.86 1011.77 1011.98 1012.38 1012.61 1013.00 1013.12 1013.42 1013.36 1013.40 1013.55 1013.32 1012.17 1011.42 1011.13 1010.83 1010.47 1010.32 1010.17 1010.20 1010.25 1010.37 1010.60 1010.83 1011.06 1011.35
1019.94 1019.61 1019.39 1018.90 1018.34 1017.80 1017.32 1016.88 1016.46 1016.10 1015.72 1015.34 1014.88 1014.44 1014.06 1013.89 1013.66 1012.16 1011.49 1011.74 1011.71 1011.98 1012.32 1012.54 1012.80 1013.10 1013.49 1013.44 1013.17 1012.85 1012.40 1011.79 1011.23 1010.90 1010.68 1010.49 1010.39 1010.27 1010.37 1010.48 1010.24 1010.42 1011.05 1011.56 1011.73
1019.96 1019.61 1019.30 1018.83 1018.21 1017.66 1017.13 1016.71 1016.28 1015.93 1015.57 1015.24 1014.79 1014.33 1014.09 1014.10 1013.49 1011.98 1011.61 1011.69 1011.91 1012.18 1012.51 1012.76 1013.05 1013.34 1013.40 1013.42 1012.85 1012.71 1011.87 1011.62 1011.06 1010.83 1010.79 1010.67 1010.49 1010.46 1010.38 1010.09 1010.13 1010.40 1010.76 1011.71 1011.95
1020.11 1019.67 1019.27 1018.77 1018.14 1017.55 1017.03 1016.57 1016.00 1015.54 1015.16 1014.91 1014.61 1014.25 1014.23 1014.07 1012.79 1011.99 1011.90 1011.99 1012.26 1012.51 1012.66 1012.94 1013.14 1013.25 1013.27 1013.06 1012.85 1012.55 1011.92 1011.35 1010.93 1010.85 1010.90 1010.79 1010.69 1010.65 1010.39 1010.17 1010.34 1010.63 1011.08 1011.57 1011.85
1019.96 1019.71 1019.15 1018.53 1017.86 1017.24 1016.67 1016.11 1015.50 1014.95 1014.59 1014.45 1014.36 1014.22 1014.44 1013.97 1012.28 1012.15 1012.25 1012.39 1012.55 1012.70 1012.75 1012.84 1012.87 1012.85 1012.98 1012.74 1012.68 1011.95 1011.64 1011.20 1010.96 1010.91 1010.90 1010.95 1010.57 1010.69 1010.04 1010.09 1010.48 1010.89 1011.16 1011.43 1011.67
1019.99 1019.49 1018.80 1018.24 1017.51 1016.77 1016.12 1015.42 1014.84 1014.35 1014.06 1014.00 1014.07 1014.21 1014.28 1013.12 1012.53 1012.42 1012.40 1012.51 1012.59 1012.67 1012.81 1012.76 1012.68 1012.77 1012.74 1012.57 1012.08 1011.90 1011.82 1011.37 1010.94 1010.81 1010.93 1010.88 1010.20 1009.92 1010.08 1010.27 1010.61 1010.97 1011.19 1011.24 1011.37
1019.89 1019.27 1018.61 1018.05 1017.19 1016.30 1015.50 1014.73 1013.98 1013.46 1013.48 1013.61 1013.63 1014.16 1013.65 1012.61 1012.56 1012.55 1012.55 1012.55 1012.58 1012.64 1012.63 1012.56 1012.65 1012.79 1012.75 1012.54 1012.30 1012.23 1012.01 1011.66 1010.39 1010.69 1010.75 1010.90 1008.81 1009.47 1009.44 1010.23 1010.46 1010.68 1010.97 1011.01 1010.93
1020.01 1019.22 1018.54 1017.85 1016.89 1015.89 1015.02 1014.12 1013.48 1013.15 1013.27 1013.41 1013.90 1014.10 1013.40 1012.49 1012.50 1012.50 1012.50 1012.60 1012.61 1012.65 1012.57 1012.60 1012.76 1013.10 1013.05 1013.23 1013.40 1012.76 1012.41 1011.89 1011.37 1010.83 1010.86 1011.05 1009.71 1009.17 1009.29 1009.89 1010.11 1010.58 1010.76 1010.98 1010.95
1020.08 1019.23 1018.43 1017.71 1016.69 1015.67 1014.71 1014.09 1013.72 1013.52 1013.79 1013.80 1014.02 1014.57 1013.20 1012.98 1012.62 1012.50 1012.46 1012.55 1012.72 1012.82 1012.93 1013.03 1013.45 1013.64 1013.83 1013.90 1013.54 1013.29 1013.18 1012.54 1012.05 1011.33 1011.29 1011.26 1010.20 1009.38 1009.61 1010.03 1010.12 1010.45 1010.37 1010.49 1010.69
1019.93 1019.16 1018.35 1017.57 1016.81 1015.83 1014.93 1014.57 1015.18 1014.94 1015.05 1015.20 1015.04 1014.67 1013.75 1013.25 1012.92 1012.78 1012.68 1012.69 1012.84 1013.21 1013.67 1013.81 1014.15 1013.95 1013.67 1013.91 1013.55 1013.35 1013.30 1012.91 1012.15 1011.57 1011.59 1011.13 1010.33 1009.13 1009.31 1009.79 1009.70 1009.73 1009.87 1009.73 1009.70
1019.95 1019.21 1018.40 1017.63 1017.01 1016.50 1016.03 1017.07 1018.57 1018.80 1016.97 1015.06 1014.74 1014.43 1013.78 1013.57 1013.36 1012.92 1012.86 1013.17 1013.26 1013.67 1013.98 1014.49 1014.15 1013.60 1013.71 1013.81 1013.86 1013.78 1013.61 1013.23 1012.49 1012.05 1012.12 1011.35 1010.40 1008.97 1008.74 1008.35 1007.60 1007.70 1008.18 1008.49 1008.96
1020.14 1019.37 1018.43 1017.78 1017.15 1017.39 1017.87 1018.89 1018.83 1018.60 1017.81 1015.29 1014.32 1013.81 1013.32 1013.47 1013.41 1013.14 1013.14 1013.25 1013.48 1013.87 1014.10 1014.28 1013.47 1013.23 1013.53 1013.74 1013.94 1013.64 1013.73 1013.31 1013.21 1012.63 1012.43 1011.93 1010.18 1008.29 1007.06 1006.61 1006.12 1006.13 1006.31 1006.80 1007.37
1020.45 1019.64 1018.65 1017.76 1017.94 1018.76 1018.48 1018.56 1018.53 1018.41 1017.81 1015.37 1014.13 1013.33 1013.25 1013.12 1013.27 1013.12 1013.16 1013.45 1013.66 1013.88 1014.16 1014.22 1013.27 1013.20 1013.42 1013.56 1013.65 1013.58 1012.94 1013.10 1013.45 1013.90 1013.78 1012.59 1010.87 1008.15 1006.76 1006.00 1005.47 1005.11 1005.54 1005.73 1006.13
1020.42 1019.89 1019.20 1018.83 1019.47 1019.43 1019.35 1018.58 1018.10 1018.23 1017.91 1015.59 1013.96 1013.02 1013.07 1013.53 1013.57 1013.39 1013.28 1013.32 1013.75 1013.95 1014.32 1013.41 1013.02 1013.00 1013.10 1012.75 1013.01 1012.89 1012.64 1013.27 1013.84 1014.38 1014.35 1013.43 1012.90 1007.85 1006.79 1005.87 1004.68 1004.01 1004.11 1004.52 1005.03
1020.59 1019.96 1019.57 1019.63 1019.85 1019.58 1019.05 1018.51 1018.19 1019.35 1018.14 1016.29 1014.82 1014.02 1013.90 1013.79 1013.81 1013.77 1013.74 1013.64 1013.70 1014.00 1013.98 1013.46 1013.01 1012.81 1012.32 1012.32 1012.58 1012.77 1013.19 1013.73 1014.77 1015.41 1015.13 1013.38 1012.36 1008.19 1006.40 1004.73 1003.47 1003.02 1003.42 1003.89 1004.42
1020.62 1019.94 1019.67 1019.74 1020.06 1019.32 1018.87 1018.93 1020.21 1020.69 1019.22 1018.03 1016.85 1015.94 1015.57 1014.90 1014.52 1014.48 1014.56 1014.57 1014.56 1014.67 1014.49 1013.75 1012.91 1012.28 1012.18 1012.51 1012.73 1013.14 1013.77 1014.87 1016.13 1016.96 1014.97 1013.36 1012.06 1007.51 1005.18 1003.81 1003.28 1003.25 1003.34 1003.74 1004.39
1020.67 1020.19 1020.33 1020.14 1019.93 1019.34 1019.20 1020.34 1022.10 1021.94 1020.69 1019.37 1018.21 1017.41 1016.96 1016.39 1015.66 1015.50 1015.51 1015.47 1015.13 1015.40 1015.30 1014.60 1013.39 1012.74 1012.29 1012.26 1012.38 1012.89 1013.89 1014.75 1015.91 1016.63 1015.61 1013.76 1010.44 1006.28 1004.03 1003.16 1002.89 1003.01 1003.41 1003.69 1004.36
1020.96 1020.87 1020.69 1020.28 1019.90 1019.48 1020.09 1021.90 1022.51 1022.34 1021.49 1020.54 1019.23 1018.87 1018.42 1017.87 1017.47 1016.62 1016.58 1016.53 1016.06 1015.98 1016.11 1015.17 1014.12 1013.07 1012.78 1012.75 1012.92 1013.40 1013.85 1014.20 1015.49 1016.66 1016.59 1013.10 1009.06 1006.19 1003.46 1002.81 1002.90 1003.15 1003.56 1003.93 1004.46
1022.07 1021.82 1021.23 1020.39 1019.86 1020.15 1021.38 1023.10 1023.15 1022.29 1021.74 1021.16 1020.96 1020.69 1020.39 1019.72 1019.03 1018.28 1017.75 1018.31 1017.90 1017.18 1016.77 1015.84 1014.99 1013.90 1013.51 1013.28 1013.48 1013.50 1013.86 1014.62 1015.94 1016.53 1015.83 1011.98 1009.57 1006.60 1004.19 1003.30 1003.16 1003.15 1003.72 1004.12 1004.62
1022.63 1022.57 1021.41 1020.45 1020.16 1021.45 1023.59 1024.26 1023.11 1022.62 1022.18 1021.84 1021.50 1021.43 1021.43 1021.36 1020.92 1020.10 1019.18 1019.84 1018.96 1018.24 1017.25 1016.89 1016.24 1015.08 1014.41 1013.95 1013.63 1014.12 1014.13 1014.46 1014.91 1015.46 1015.00 1012.92 1008.23 1005.45 1004.30 1003.99 1003.97 1003.84 1003.84 1004.40 1005.02
1023.54 1023.64 1022.00 1020.99 1022.24 1024.66 1025.33 1024.71 1023.76 1023.10 1022.45 1022.14 1022.05 1022.20 1022.39 1022.57 1022.20 1021.73 1020.64 1020.53 1020.11 1019.80 1019.51 1018.64 1017.50 1016.20 1014.79 1013.75 1013.61 1013.64 1013.71 1013.98 1014.44 1014.86 1014.28 1013.03 1007.67 1004.83 1004.18 1004.19 1004.31 1004.35 1004.34 1004.56 1005.29
1024.82 1024.51 1022.77 1022.36 1024.26 1025.83 1025.64 1024.80 1024.03 1023.43 1022.98 1022.69 1022.70 1022.98 1023.35 1023.73 1023.59 1022.72 1021.99 1021.54 1021.12 1020.75 1020.60 1019.97 1018.72 1017.51 1015.79 1015.19 1014.60 1014.11 1013.60 1013.37 1013.40 1013.64 1012.56 1011.97 1007.48 1005.21 1004.37 1004.18 1004.19 1004.36 1004.31 1004.64 1005.25
1025.16 1025.55 1024.96 1024.88 1025.58 1025.85 1026.37 1025.42 1024.32 1023.50 1023.27 1023.22 1023.30 1023.50 1024.04 1024.43 1024.32 1023.96 1022.96 1022.01 1021.80 1021.62 1021.16 1020.79 1020.29 1019.39 1018.45 1017.78 1017.50 1015.68 1014.56 1013.90 1013.51 1012.85 1010.62 1008.92 1006.77 1006.36 1005.04 1004.32 1003.99 1004.52 1004.78 1004.94 1005.13
1025.52 1026.14 1026.17 1026.17 1026.16 1026.07 1025.75 1025.41 1024.67 1024.07 1023.47 1023.34 1023.32 1023.67 1024.10 1025.06 1025.05 1024.56 1023.70 1023.26 1022.68 1022.26 1022.11 1022.17 1021.66 1020.86 1019.72 1018.88 1017.83 1016.33 1014.86 1013.60 1012.78 1011.05 1011.26 1005.34 1007.16 1006.41 1005.34 1005.42 1004.73 1004.57 1004.65 1005.22 1005.38
1024.69 1025.69 1026.27 1025.70 1025.58 1025.58 1025.39 1024.95 1024.23 1023.70 1023.70 1023.17 1023.08 1023.02 1023.51 1024.34 1024.12 1023.88 1023.82 1023.88 1023.72 1023.36 1023.31 1023.34 1022.91 1022.07 1020.53 1019.36 1017.84 1015.95 1014.11 1013.16 1011.60 1010.71 1009.42 1008.33 1005.94 1006.41 1005.59 1005.37 1005.05 1004.67 1004.72 1004.86 1005.11
1023.84 1024.34 1024.67 1024.41 1024.79 1024.67 1024.12 1023.71 1023.19 1023.02 1022.70 1022.12 1021.99 1022.65 1022.76 1022.09 1022.38 1022.64 1023.04 1023.51 1023.71 1023.89 1024.24 1024.37 1023.85 1023.62 1021.85 1020.40 1018.73 1015.42 1012.42 1011.38 1009.97 1009.13 1008.16 1007.49 1004.83 1005.97 1005.43 1004.76 1004.01 1004.00 1004.56 1004.64 1004.49
Thickness
5549 5547 5548 5548 5552 5552 5553 5556 5559 5562 5566 5569 5572 5577 5581 5584 5585 5585 5586 5600 5601 5602 5601 5598 5597 5597 5595 5593 5595 5594 5584 5592 5614 5613 5627 5632 5633 5640 5644 5644 5646 5652 5653 5653 5651
5538 5538 5536 5540 5541 5543 5544 5547 5550 5553 5557 5561 5566 5571 5575 5577 5578 5579 5594 5595 5596 5595 5593 5591 5588 5587 5582 5586 5585 5583 5578 5602 5615 5614 5618 5625 5624 5629 5633 5636 5641 5644 5645 5643 5642
5532 5530 5527 5529 5531 5534 5537 5539 5542 5546 5550 5554 5558 5563 5567 5570 5572 5585 5590 5589 5590 5589 5587 5586 5585 5583 5578 5578 5580 5584 5586 5603 5608 5610 5614 5618 5616 5623 5624 5626 5636 5637 5636 5633 5635
5524 5523 5521 5521 5523 5525 5527 5530 5534 5538 5541 5545 5550 5555 5559 5560 5571 5580 5582 5581 5581 5580 5579 5577 5576 5573 5573 5570 5578 5575 5588 5595 5602 5605 5606 5608 5613 5617 5617 5631 5635 5633 5635 5628 5629
5517 5516 5515 5515 5516 5518 5520 5522 5527 5532 5536 5539 5543 5546 5549 5552 5560 5571 5572 5573 5572 5571 5570 5569 5569 5567 5566 5568 5571 5569 5582 5590 5596 5596 5596 5600 5604 5609 5614 5624 5628 5627 5626 5626 5628
5513 5511 5512 5511 5512 5514 5516 5519 5523 5528 5532 5534 5536 5538 5539 5540 5559 5561 5562 5562 5562 5562 5563 5563 5564 5565 5565 5566 5563 5575 5578 5585 5587 5590 5591 5592 5602 5600 5617 5620 5621 5621 5621 5621 5625
5510 5510 5510 5509 5511 5513 5515 5519 5523 5526 5528 5530 5531 5531 5530 5537 5548 5550 5552 5553 5554 5555 5556 5557 5560 5560 5562 5564 5568 5569 5569 5575 5580 5585 5586 5589 5594 5600 5614 5614 5613 5614 5617 5621 5623
5507 5509 5510 5509 5512 5515 5518 5522 5526 5529 5528 5527 5527 5523 5522 5538 5539 5541 5543 5545 5546 5547 5549 5552 5552 5553 5555 5558 5561 5561 5564 5562 5586 5579 5583 5585 5602 5609 5612 5605 5611 5612 5613 5618 5624
5503 5507 5508 5510 5514 5518 5521 5525 5528 5528 5526 5523 5520 5517 5520 5531 5532 5533 5535 5537 5537 5539 5542 5544 5545 5543 5548 5545 5536 5547 5547 5553 5565 5572 5575 5569 5588 5608 5605 5596 5604 5603 5604 5609 5615
5499 5504 5508 5510 5514 5519 5523 5525 5525 5524 5519 5518 5516 5511 5525 5523 5525 5526 5527 5528 5530 5530 5532 5533 5521 5521 5519 5522 5522 5539 5533 5545 5551 5565 5557 5558 5573 5595 5595 5586 5593 5593 5596 5601 5608
5497 5501 5505 5509 5512 5517 5523 5521 5510 5509 5505 5500 5503 5503 5512 5517 5518 5519 5520 5521 5522 5518 5512 5516 5508 5512 5521 5522 5531 5537 5532 5537 5550 5556 5553 5552 5567 5594 5592 5578 5585 5596 5598 5604 5612
5493 5498 5502 5506 5508 5510 5512 5501 5485 5481 5494 5507 5505 5504 5508 5512 5511 5514 5514 5513 5513 5505 5505 5501 5498 5515 5523 5514 5516 5518 5523 5522 5539 5545 5538 5546 5553 5587 5587 5587 5611 5618 5618 5617 5612
5486 5491 5497 5501 5504 5501 5494 5484 5483 5483 5489 5503 5511 5512 5516 5510 5506 5506 5507 5506 5506 5500 5493 5491 5513 5515 5509 5510 5507 5508 5506 5516 5523 5532 5526 5526 5540 5587 5596 5596 5610 5616 5626 5627 5623
5478 5483 5490 5496 5492 5484 5488 5483 5481 5480 5461 5509 5515 5516 5513 5512 5510 5506 5503 5503 5499 5496 5488 5486 5503 5510 5503 5503 5500 5502 5512 5515 5514 5517 5493 5526 5494 5573 5595 5598 5606 5613 5611 5626 5626
5472 5475 5480 5481 5474 5473 5474 5478 5480 5477 5436 5508 5513 5514 5512 5509 5505 5503 5500 5500 5494 5496 5489 5500 5506 5503 5499 5504 5501 5502 5520 5511 5511 5498 5499 5512 5481 5566 5586 5594 5610 5623 5620 5626 5628
5463 5467 5469 5469 5466 5466 5469 5472 5474 5435 5441 5482 5495 5497 5502 5501 5500 5495 5494 5495 5491 5489 5484 5486 5495 5497 5499 5502 5501 5501 5506 5497 5479 5480 5422 5504 5507 5544 5577 5601 5617 5628 5627 5621 5621
5453 5458 5459 5459 5454 5460 5462 5461 5427 5413 5449 5450 5468 5477 5477 5488 5490 5484 5482 5477 5471 5458 5471 5483 5487 5495 5496 5496 5492 5493 5494 5463 5458 5402 5451 5489 5496 5546 5588 5599 5606 5615 5620 5618 5608
5443 5446 5445 5444 5445 5449 5449 5431 5399 5357 5376 5442 5459 5458 5463 5459 5477 5471 5467 5461 5463 5459 5441 5450 5464 5480 5487 5492 5492 5484 5476 5455 5451 5431 5448 5481 5484 5548 5588 5597 5598 5603 5606 5612 5599
5430 5432 5430 5431 5433 5436 5428 5373 5374 5377 5419 5423 5437 5409 5414 5436 5442 5452 5452 5446 5453 5448 5438 5437 5465 5475 5476 5477 5480 5464 5457 5481 5461 5384 5407 5475 5517 5543 5583 5592 5592 5594 5594 5593 5591
5411 5410 5413 5419 5422 5417 5394 5384 5380 5404 5401 5404 5398 5382 5386 5390 5412 5422 5433 5411 5411 5430 5427 5445 5430 5461 5462 5467 5462 5460 5467 5448 5425 5448 5408 5466 5484 5532 5570 5585 5586 5593 5592 5584 5581
5395 5388 5402 5408 5407 5390 5343 5342 5387 5385 5382 5382 5387 5378 5385 5389 5391 5385 5408 5380 5394 5399 5411 5420 5425 5445 5451 5446 5451 5438 5429 5432 5447 5438 5414 5408 5492 5522 5554 5561 5566 5567 5574 5575 5567
5377 5359 5386 5392 5364 5305 5322 5358 5368 5364 5365 5365 5366 5365 5363 5352 5343 5378 5388 5368 5374 5378 5370 5386 5400 5405 5429 5445 5448 5448 5445 5448 5435 5432 5424 5412 5496 5542 5550 5543 5549 5553 5555 5562 5559
5348 5349 5370 5372 5319 5302 5321 5349 5349 5347 5348 5347 5347 5344 5337 5322 5316 5333 5349 5353 5355 5359 5354 5361 5375 5380 5402 5417 5424 5431 5438 5447 5429 5427 5446 5410 5485 5521 5538 5543 5547 5544 5548 5549 5552
5335 5323 5330 5333 5324 5322 5299 5310 5325 5336 5331 5329 5328 5326 5311 5290 5306 5288 5326 5337 5335 5336 5350 5349 5355 5368 5374 5383 5364 5398 5415 5424 5417 5424 5454 5471 5499 5510 5524 5533 5538 5532 5536 5539 5539
5321 5311 5308 5293 5301 5306 5311 5309 5312 5294 5312 5311 5309 5304 5296 5256 5258 5266 5280 5300 5313 5321 5313 5310 5292 5327 5335 5349 5361 5377 5392 5411 5420 5441 5431 5510 5468 5491 5507 5503 5517 5505 5518 5523 5521
5314 5304 5295 5281 5294 5299 5296 5285 5295 5286 5285 5292 5282 5291 5281 5250 5268 5256 5250 5254 5280 5280 5275 5279 5267 5304 5310 5340 5355 5360 5383 5396 5422 5426 5437 5453 5473 5481 5494 5492 5494 5506 5505 5508 5515
5311 5304 5292 5308 5290 5288 5288 5282 5285 5282 5279 5282 5274 5250 5263 5265 5261 5261 5262 5261 5256 5248 5246 5249 5241 5231 5258 5315 5318 5335 5399 5411 5426 5430 5437 5437 5483 5471 5478 5491 5502 5503 5501 5506 5516